SL-14 R/B, 16144

Orbit data source: Space-Track

SL-14 R/B, 16144 is space debris in LEO originally from a launch on Wed, 09 Oct 1985 UTC launched from the Plesetsk Missile And Space Complex (PKMTR). Debris objects in space refer to the collection of defunct objects orbiting the Earth. Examples of debris include non-operational satellites, rocket bodies, and fragments generated from explosions, collisions, or faulty payload assembly.

Loading next visibility...
Identifier
16144, 1985-094G
Orbit
LEO
Country
Flag of CISCIS
Related business
Manufacturer
Yuzhnoe
Mission
Spacecraft
Bus & Motor
S5M, Unknown motor
Mass
1,600 kg wet, 1,600 kg dry
Launch date (UTC)
1985-10-09 (41 years ago)
Launch vehicle
Unknown
Launch site
Plesetsk Missile And Space Complex (PKMTR)
Object type
Payload
Rocket body
Debris
Shape & HBR
Unknown
Radar Cross Section
Large (>1 m²)

Expand to show TLE details & history
Last TLE update: 5 hours ago

TLE from 5 hours ago
0 SL-14 R/B
1 16144U 85094G   26127.31693013  .00000017  00000-0  38593-4 0  9996
2 16144  82.6070  79.1542 0035974 185.6646 329.8002 12.54893671858622
Epoch: 2026-05-07T07:36Z
TLE epoch observation values (Epoch: 2026-05-07T07:36:22.763Z)
Latitude
24.54838°
Longitude
-83.48624°
Altitude
1,422.608 km
Speed
7.163 km/s
True Right ascension
17h 03m 05s
True Declination
24° 25' 47"
Sunlit
Object was in full shadow at epoch
Visualization orbit readout
Latitude
Unknown
Longitude
Unknown
Altitude
Unknown
Speed
Unknown
Apparent Right ascension
Unknown
Apparent Declination
Unknown
Sunlit
N/A
Visualization observer readout
Local Sidereal Time
20:43:36
Azimuth
Unknown
Elevation
Unknown
Doppler factor
Unknown
Orbital elements
Apogee altitude
1,469.553 km
Perigee altitude
1,413.293 km
Semi-major axis
7,819.56 km
Eccentricity
0.0036
Inclination
82.607°
RAAN
79.1542°
Arg. of periapsis
185.6646°
True anomaly
329.59203°
Mean anomaly
329.8002°
Eccentric anomaly
329.6962°
Mean motion
3.13884 °/min
Orbital period
114.69 mins
BSTAR
0.000038593
Loading maneuver chart data...
Computing Atmospheric mass density...
Loading historical data...
Loading historical data...
Loading historical data...
Loading historical data...
Loading historical data...
Loading historical data...
Loading historical data...

Documentation

Showing up to 5 results
|